PBO Station Position Time Series. Reference Frame : NAM14
Format Version,1.1.0
4-character ID,P519
Station name,PaintedCavCS2007
Begin Date, 2007-06-01
End Date, 2019-10-07
Release Date, 2019-10-08
Reference position, 34.5078121050 North Latitude, -119.7924387741 East Longitude, 810.91398 meters elevation,
Date, North (mm), East (mm), Vertical (mm), North Std. Deviation (mm), East Std. Deviation (mm),              Vertical Std. Deviation (mm), Quality,
2007-06-01,0.00, 0.00, 0.00, 1.91, 1.61, 7.21, repro,
2007-06-02,0.10, 1.01, -3.41, 1.93, 1.67, 7.43, repro,
2007-06-03,0.92, 0.42, -1.27, 1.90, 1.62, 7.27, repro,
2007-06-04,1.16, 1.72, -0.25, 1.92, 1.66, 7.33, repro,
2007-06-05,0.61, 1.42, -3.79, 1.93, 1.63, 7.36, repro,
2007-06-06,-2.25, 1.65, 3.34, 1.91, 1.60, 7.22, repro,
2007-06-07,-0.57, 0.14, -2.70, 1.88, 1.61, 7.25, repro,
2007-06-08,1.42, 0.27, -4.85, 1.90, 1.61, 7.26, repro,
2007-06-09,1.75, 1.60, -2.38, 1.94, 1.70, 7.41, repro,
2007-06-10,1.47, 0.98, -4.92, 1.91, 1.66, 7.32, repro,
2007-06-11,1.26, 0.98, -2.08, 1.93, 1.71, 7.43, repro,
2007-06-12,-0.12, 0.33, 4.33, 1.93, 1.71, 7.41, repro,
2007-06-13,0.92, -0.58, -4.70, 1.93, 1.65, 7.29, repro,
2007-06-14,0.15, 1.82, -6.23, 1.97, 1.72, 7.46, repro,
2007-06-15,1.13, 1.95, -3.96, 1.91, 1.66, 7.36, repro,
2007-06-16,1.11, 0.15, -5.88, 1.89, 1.63, 7.32, repro,
2007-06-17,0.75, 1.07, -3.07, 1.87, 1.61, 7.21, repro,
2007-06-18,0.64, 1.26, -0.99, 1.87, 1.61, 7.19, repro,
2007-06-19,0.10, 1.53, -8.29, 1.93, 1.66, 7.39, repro,
2007-06-20,1.19, 1.32, -9.28, 1.92, 1.65, 7.33, repro,
2007-06-21,0.79, 1.63, -6.04, 1.90, 1.66, 7.36, repro,
2007-06-22,-0.02, 1.79, -6.27, 1.88, 1.62, 7.27, repro,
2007-06-23,0.98, 2.30, -6.53, 1.87, 1.62, 7.26, repro,
2007-06-24,-0.49, 1.73, -8.81, 1.92, 1.70, 7.53, repro,
2007-06-25,-0.10, 2.05, -9.96, 1.96, 1.71, 7.53, repro,
2007-06-26,1.09, 1.67, -11.40, 1.88, 1.61, 7.25, repro,
2007-06-27,0.61, 0.94, -10.48, 1.89, 1.62, 7.32, repro,
2007-06-28,0.84, 3.05, -11.08, 1.88, 1.61, 7.24, repro,
2007-06-29,1.11, 2.39, -3.47, 1.87, 1.62, 7.30, repro,
2007-06-30,-0.80, 2.93, -8.79, 1.94, 1.68, 7.51, repro,
2007-07-01,0.98, 2.37, -6.56, 1.92, 1.66, 7.40, repro,
2007-07-02,-0.46, 2.32, -7.27, 1.88, 1.62, 7.30, repro,
2007-07-03,1.20, 2.45, -7.84, 1.87, 1.61, 7.26, repro,
2007-07-04,1.33, 2.44, -5.64, 1.88, 1.62, 7.29, repro,
2007-07-05,0.31, 2.13, -3.53, 1.92, 1.68, 7.47, repro,
2007-07-06,1.81, 1.12, -7.11, 1.93, 1.68, 7.48, repro,
2007-07-07,0.27, 1.49, -5.07, 1.88, 1.63, 7.28, repro,
2007-07-08,-0.23, 1.25, 0.58, 1.87, 1.61, 7.22, repro,
2007-07-09,0.80, 2.68, -2.22, 1.88, 1.62, 7.26, repro,
2007-07-10,0.17, 1.76, -4.20, 1.89, 1.63, 7.30, repro,
2007-07-11,0.30, 3.09, -13.03, 1.93, 1.68, 7.44, repro,
2007-07-12,0.70, 1.23, -5.14, 1.91, 1.70, 7.45, repro,
2007-07-13,0.85, 2.49, -4.71, 1.90, 1.69, 7.38, repro,
2007-07-14,2.13, 2.65, -1.34, 1.88, 1.61, 7.24, repro,
2007-07-15,2.84, 3.50, -0.32, 1.92, 1.69, 7.43, repro,
2007-07-16,1.35, 1.66, -3.36, 1.96, 1.75, 7.67, repro,
2007-07-17,0.66, 1.24, -0.59, 1.92, 1.67, 7.41, repro,
2007-07-18,1.15, 0.42, -9.19, 1.92, 1.70, 7.51, repro,
2007-07-19,1.32, 2.90, -8.31, 1.88, 1.63, 7.23, repro,
2007-07-20,1.22, 1.75, 3.52, 1.92, 1.70, 7.46, repro,
2007-07-21,2.05, 3.47, 1.05, 1.91, 1.69, 7.47, repro,
2007-07-22,0.87, 2.21, -2.50, 2.00, 1.77, 7.81, repro,
2007-07-23,2.46, 1.09, -2.19, 1.92, 1.70, 7.51, repro,
2007-07-24,1.68, 1.59, -6.86, 1.93, 1.70, 7.50, repro,
2007-07-25,0.14, 2.29, 0.95, 1.93, 1.70, 7.53, repro,
2007-07-26,2.15, 2.28, 0.74, 1.90, 1.63, 7.35, repro,
2007-07-27,0.34, 3.09, -6.83, 1.94, 1.71, 7.59, repro,
2007-07-28,1.85, 1.53, -6.18, 1.98, 1.82, 7.76, repro,
2007-07-29,1.29, 1.75, -3.64, 1.92, 1.71, 7.51, repro,
2007-07-30,1.33, 1.12, -9.50, 1.94, 1.73, 7.62, repro,
2007-07-31,0.97, 1.91, -4.15, 1.90, 1.64, 7.32, repro,
2007-08-01,1.38, 1.61, -0.86, 1.91, 1.66, 7.37, repro,
2007-08-02,1.31, 1.79, -8.62, 1.88, 1.63, 7.26, repro,
2007-08-03,1.10, 1.10, 0.82, 1.93, 1.72, 7.47, repro,
2007-08-04,1.86, 1.33, -3.18, 1.89, 1.63, 7.27, repro,
2007-08-05,1.98, 2.79, -0.39, 1.93, 1.64, 7.42, repro,
2007-08-06,1.86, 2.62, 1.40, 1.91, 1.66, 7.41, repro,
2007-08-07,2.58, 0.58, -5.79, 1.90, 1.67, 7.41, repro,
2007-08-08,1.39, 1.88, -3.41, 1.88, 1.62, 7.23, repro,
2007-08-09,1.17, 2.63, -3.68, 1.87, 1.62, 7.21, repro,
2007-08-10,1.71, 2.97, 2.57, 1.88, 1.63, 7.26, repro,
2007-08-11,1.47, 2.79, -0.46, 1.88, 1.62, 7.23, repro,
2007-08-12,2.71, 1.89, -1.55, 1.88, 1.61, 7.22, repro,
2007-08-13,2.02, 1.22, -5.41, 1.89, 1.65, 7.29, repro,
2007-08-14,2.55, 1.67, -5.17, 2.00, 1.74, 7.66, repro,
2007-08-15,1.11, 1.98, -1.48, 2.00, 1.74, 7.66, repro,
2007-08-16,2.11, 1.37, 2.16, 1.97, 1.68, 7.63, repro,
2007-08-17,2.08, 2.03, -4.82, 1.98, 1.68, 7.64, repro,
2007-08-18,1.77, 2.55, -6.26, 1.98, 1.73, 7.80, repro,
2007-08-19,3.42, 1.17, -3.43, 2.03, 1.73, 7.91, repro,
2007-08-20,2.14, 0.98, 0.02, 1.95, 1.67, 7.53, repro,
2007-08-21,4.01, 2.66, -4.77, 1.99, 1.69, 7.65, repro,
2007-08-22,2.18, 1.90, -0.92, 1.96, 1.66, 7.51, repro,
2007-08-23,1.34, 1.58, -1.56, 1.99, 1.73, 7.62, repro,
2007-08-24,1.96, 2.47, -1.84, 2.03, 1.74, 7.86, repro,
2007-08-25,3.67, 2.02, -7.41, 1.97, 1.71, 7.61, repro,
2007-08-26,3.30, 2.91, 1.67, 2.00, 1.77, 7.81, repro,
2007-08-27,2.38, 2.81, -4.63, 2.05, 1.83, 8.02, repro,
2007-08-28,2.35, 1.31, -3.03, 1.98, 1.72, 7.65, repro,
2007-08-29,1.10, 1.38, 0.88, 2.03, 1.83, 7.90, repro,
2007-08-30,1.46, 1.79, -0.38, 1.99, 1.73, 7.70, repro,
2007-08-31,1.55, 1.86, 2.05, 1.97, 1.71, 7.61, repro,
2007-09-01,1.35, 1.39, -2.02, 1.96, 1.72, 7.65, repro,
2007-09-02,2.95, 2.26, -6.40, 1.98, 1.73, 7.72, repro,
2007-09-03,1.43, -0.32, 0.90, 2.03, 1.82, 7.90, repro,
2007-09-04,2.43, 0.31, -0.05, 1.98, 1.73, 7.70, repro,
2007-09-05,1.15, 1.46, 1.55, 1.97, 1.72, 7.64, repro,
2007-09-06,1.77, 1.75, -2.84, 1.96, 1.72, 7.64, repro,
2007-09-07,0.84, 2.19, 3.73, 1.99, 1.79, 7.83, repro,
2007-09-08,2.35, 2.89, -4.08, 2.05, 1.82, 8.00, repro,
2007-09-09,1.27, 2.04, -2.14, 2.05, 1.81, 8.03, repro,
2007-09-10,1.56, 0.74, -1.22, 2.02, 1.76, 7.79, repro,
2007-09-11,0.39, 0.85, -1.12, 2.00, 1.72, 7.69, repro,
2007-09-12,0.68, -1.00, 0.02, 2.01, 1.76, 7.81, repro,
2007-09-13,0.26, 1.95, -0.68, 2.10, 1.76, 8.07, repro,
2007-09-14,3.10, 1.67, -6.26, 2.03, 1.75, 7.84, repro,
2007-09-15,2.42, 1.19, 4.02, 2.15, 1.74, 8.24, repro,
2007-09-16,1.82, 0.71, -8.04, 2.06, 1.73, 7.91, repro,
2007-09-17,1.00, 0.21, 3.96, 2.06, 1.83, 8.11, repro,
2007-09-18,1.76, 0.97, -4.38, 2.00, 1.76, 7.80, repro,
2007-09-19,1.60, 2.57, -5.07, 1.90, 1.63, 7.33, repro,
2007-09-20,0.75, 1.05, -5.76, 1.92, 1.63, 7.37, repro,
2007-09-21,1.59, -0.02, -0.58, 2.01, 1.72, 7.80, repro,
2007-09-22,2.90, 2.20, -3.25, 1.96, 1.65, 7.55, repro,
2007-09-23,1.24, 1.52, 6.09, 2.00, 1.75, 7.83, repro,
2007-09-24,1.03, 2.99, -2.66, 2.02, 1.70, 7.81, repro,
2007-09-25,0.92, 1.76, -6.94, 1.97, 1.66, 7.58, repro,
2007-09-26,2.60, 2.09, 3.47, 2.02, 1.66, 7.73, repro,
2007-09-27,0.35, 1.17, 3.46, 1.96, 1.67, 7.59, repro,
2007-09-28,0.63, 1.09, 1.23, 1.95, 1.73, 7.63, repro,
2007-09-29,0.51, 0.35, -1.10, 1.96, 1.74, 7.73, repro,
2007-09-30,1.67, 1.32, 0.31, 2.01, 1.73, 7.82, repro,
2007-10-01,1.11, 1.80, 4.71, 1.96, 1.74, 7.77, repro,
2007-10-02,2.32, 2.14, 3.38, 2.00, 1.78, 7.90, repro,
2007-10-03,0.99, 2.76, 5.42, 2.02, 1.71, 7.83, repro,
2007-10-04,0.34, 2.36, 4.64, 1.97, 1.72, 7.73, repro,
2007-10-05,-1.61, 2.40, 4.49, 1.99, 1.78, 8.01, repro,
2007-10-06,-1.89, 0.56, 8.33, 1.94, 1.72, 7.64, repro,
2007-10-07,1.44, 1.86, -2.84, 1.99, 1.74, 7.81, repro,
2007-10-08,0.44, 2.84, 4.86, 2.20, 1.91, 9.00, repro,
2007-10-09,0.68, 1.98, 3.05, 2.09, 1.89, 8.38, repro,
2007-10-10,0.28, 2.16, -0.94, 2.08, 1.78, 8.21, repro,
2007-10-11,1.26, 1.48, 4.71, 1.94, 1.73, 7.70, repro,
2007-10-12,2.65, 1.71, 1.66, 1.94, 1.74, 7.72, repro,
2007-10-13,-0.04, 1.68, 4.20, 1.95, 1.74, 7.74, repro,
2007-10-14,1.17, 2.41, 2.91, 1.95, 1.74, 7.73, repro,
2007-10-15,1.27, 1.27, 5.93, 1.91, 1.68, 7.56, repro,
2007-10-16,-0.42, 1.96, 0.02, 1.94, 1.74, 7.66, repro,
2007-10-17,-7.27, 2.57, -3.97, 1.91, 1.69, 7.57, repro,
2007-10-18,4.85, 1.80, 12.43, 1.94, 1.74, 7.74, repro,
2007-10-19,1.08, 1.42, 2.70, 1.91, 1.68, 7.53, repro,
2007-10-20,-0.00, 3.01, 4.42, 1.95, 1.74, 7.70, repro,
2007-10-21,1.70, 3.41, -0.72, 1.90, 1.67, 7.49, repro,
2007-10-22,1.72, 1.46, -2.21, 1.92, 1.66, 7.44, repro,
2007-10-23,1.02, 2.87, 1.45, 1.98, 1.81, 7.88, repro,
2007-10-24,0.60, 3.62, -0.96, 2.01, 1.85, 8.06, repro,
2007-10-25,0.80, 2.86, 0.83, 1.92, 1.69, 7.60, repro,
2007-10-26,0.46, 3.07, 2.34, 1.94, 1.72, 7.61, repro,
2007-10-27,-0.70, 1.24, -2.52, 1.91, 1.67, 7.53, repro,
2007-10-28,0.89, 2.58, -2.68, 1.91, 1.68, 7.52, repro,
2007-10-29,1.11, 1.77, 0.96, 1.92, 1.68, 7.55, repro,
2007-10-30,0.75, 2.54, -8.41, 1.97, 1.78, 7.76, repro,
2007-10-31,0.68, 1.65, -2.22, 1.93, 1.72, 7.71, repro,
2007-11-01,1.68, 2.74, -2.91, 1.88, 1.64, 7.29, repro,
2007-11-02,1.71, 2.02, -3.22, 1.92, 1.70, 7.44, repro,
2007-11-03,1.09, 2.00, -6.29, 1.91, 1.70, 7.42, repro,
2007-11-04,0.63, 2.70, -2.01, 1.90, 1.68, 7.41, repro,
2007-11-05,0.81, 3.06, -5.72, 1.90, 1.67, 7.40, repro,
2007-11-06,0.52, 1.81, -5.84, 1.95, 1.75, 7.67, repro,
2007-11-07,1.76, 2.61, -4.94, 1.92, 1.70, 7.48, repro,
2007-11-08,0.45, 1.58, -3.35, 1.95, 1.76, 7.69, repro,
2007-11-09,1.41, 0.47, -8.76, 1.91, 1.69, 7.51, repro,
2007-11-10,1.17, 2.02, -3.12, 1.89, 1.64, 7.37, repro,
2007-11-11,0.91, 0.69, -0.78, 1.87, 1.63, 7.31, repro,
2007-11-12,-0.65, 4.00, -9.16, 1.90, 1.65, 7.43, repro,
2007-11-13,0.42, 1.19, -1.60, 1.92, 1.70, 7.48, repro,
2007-11-14,2.50, 1.12, -1.21, 1.93, 1.70, 7.57, repro,
2007-11-15,0.65, 1.21, -10.40, 1.93, 1.70, 7.53, repro,
2007-11-16,2.15, 1.81, -5.47, 1.90, 1.65, 7.41, repro,
2007-11-17,0.50, 1.65, -6.57, 1.91, 1.69, 7.47, repro,
2007-11-18,1.93, 2.15, -6.73, 1.91, 1.70, 7.48, repro,
2007-11-19,1.29, 1.89, -4.01, 1.88, 1.64, 7.35, repro,
2007-11-20,0.57, 0.49, -10.74, 1.96, 1.75, 7.54, repro,
2007-11-21,2.70, 1.57, -9.67, 1.98, 1.80, 7.65, repro,
2007-11-22,2.34, 1.91, -11.09, 1.96, 1.77, 7.61, repro,
2007-11-23,3.15, 1.40, -7.99, 1.98, 1.81, 7.69, repro,
2007-11-24,2.63, 2.06, -0.62, 1.96, 1.75, 7.56, repro,
2007-11-25,1.84, 1.22, -6.02, 2.00, 1.81, 7.60, repro,
2007-11-26,1.60, 2.55, -5.07, 2.03, 1.85, 7.91, repro,
2007-11-27,2.01, 2.19, -9.32, 2.02, 1.83, 7.88, repro,
2007-11-28,2.40, 1.57, -9.58, 1.96, 1.75, 7.54, repro,
2007-11-29,2.03, 1.82, -9.14, 1.98, 1.73, 7.74, repro,
2007-11-30,2.92, 2.07, -0.01, 2.01, 1.79, 7.68, repro,
2007-12-01,1.07, 0.51, 1.42, 2.11, 1.93, 8.17, repro,
2007-12-02,1.41, 2.45, -6.51, 2.16, 1.96, 8.45, repro,
2007-12-03,2.63, 2.33, -11.57, 2.18, 1.95, 8.66, repro,
2007-12-04,2.49, 1.15, -8.62, 2.11, 1.91, 8.21, repro,
2007-12-05,-0.03, 2.43, -11.84, 2.10, 1.92, 8.51, repro,
2007-12-06,1.42, 2.81, -4.21, 2.14, 1.97, 8.50, repro,
2007-12-07,-2.81, 2.01, 1.84, 2.15, 1.99, 8.39, repro,
2007-12-08,-2.27, 1.14, -8.68, 2.00, 1.78, 7.81, repro,
2007-12-09,0.97, 1.77, 2.91, 2.35, 2.27, 9.25, repro,
2007-12-10,1.98, 1.64, -7.04, 2.07, 1.84, 7.95, repro,
2007-12-11,1.32, 1.47, -3.10, 2.03, 1.78, 7.87, repro,
2007-12-12,2.68, 1.39, -9.78, 2.05, 1.79, 8.05, repro,
2007-12-13,1.70, 1.99, -7.74, 1.97, 1.73, 7.68, repro,
2007-12-14,1.94, 2.57, -3.17, 1.95, 1.71, 7.63, repro,
2007-12-15,1.84, 3.60, -0.14, 1.97, 1.71, 7.73, repro,
2007-12-16,3.29, 1.77, -3.41, 1.95, 1.67, 7.63, repro,
2007-12-17,2.52, 2.32, -8.13, 2.00, 1.73, 7.68, repro,
2007-12-18,2.29, 2.16, 5.26, 1.95, 1.72, 7.60, repro,
2007-12-19,0.98, 1.31, -1.85, 1.95, 1.71, 7.54, repro,
2007-12-20,2.18, 1.72, -3.82, 1.94, 1.68, 7.60, repro,
2007-12-21,-0.98, 2.60, -4.20, 2.04, 1.73, 7.91, repro,
2007-12-22,2.61, 2.12, -6.04, 2.05, 1.78, 8.04, repro,
2007-12-23,3.18, 3.30, -1.48, 2.00, 1.75, 7.72, repro,
2007-12-24,1.01, 2.59, 1.75, 1.97, 1.70, 7.62, repro,
2007-12-25,1.55, 0.99, 0.82, 1.96, 1.69, 7.60, repro,
2007-12-26,-0.17, 3.00, -3.71, 2.04, 1.79, 7.80, repro,
2007-12-27,-1.83, 1.96, 11.74, 1.99, 1.76, 7.79, repro,
2007-12-28,2.47, 3.05, 3.38, 2.01, 1.73, 7.78, repro,
2007-12-29,0.84, 2.97, -0.58, 1.97, 1.68, 7.61, repro,
2007-12-30,1.47, 1.31, -5.26, 1.99, 1.72, 7.67, repro,
2007-12-31,0.85, 3.63, -5.78, 1.95, 1.64, 7.50, repro,
2008-01-01,1.21, 2.66, -5.48, 1.93, 1.65, 7.49, repro,
2008-01-02,2.05, 2.43, -6.98, 1.94, 1.64, 7.49, repro,
2008-01-03,0.88, 2.21, -1.71, 1.94, 1.66, 7.52, repro,
2008-01-04,2.84, 1.48, -5.14, 1.95, 1.67, 7.55, repro,
2008-01-05,0.41, 0.80, -1.03, 1.91, 1.61, 7.39, repro,
2008-01-06,1.14, 1.23, -3.33, 1.92, 1.63, 7.47, repro,
2008-01-07,-0.31, 2.20, -0.87, 1.93, 1.65, 7.51, repro,
2008-01-08,1.20, 2.63, -3.72, 1.96, 1.64, 7.68, repro,
2008-01-09,0.99, 2.98, -6.58, 1.96, 1.63, 7.62, repro,
2008-01-10,2.56, 3.22, -2.85, 1.90, 1.62, 7.46, repro,
2008-01-11,1.23, 0.37, -6.63, 1.90, 1.61, 7.42, repro,
2008-01-12,1.44, 2.57, -0.60, 1.90, 1.62, 7.40, repro,
2008-01-13,-0.47, 1.70, -4.31, 1.90, 1.62, 7.42, repro,
2008-01-14,2.40, 2.09, -6.68, 1.89, 1.62, 7.33, repro,
2008-01-15,1.89, 1.68, -6.77, 1.89, 1.62, 7.37, repro,
2008-01-16,0.85, 2.10, -6.31, 1.94, 1.63, 7.51, repro,
2008-01-17,1.18, 2.55, -3.16, 1.94, 1.64, 7.57, repro,
2008-01-18,2.02, 2.43, -4.10, 1.90, 1.66, 7.45, repro,
2008-01-19,0.81, 2.35, -9.40, 1.88, 1.62, 7.32, repro,
2008-01-20,0.66, 2.13, -9.99, 1.88, 1.63, 7.31, repro,
2008-01-21,0.95, 1.65, -6.08, 1.88, 1.61, 7.29, repro,
2008-01-22,1.36, 1.74, -13.44, 1.89, 1.62, 7.36, repro,
2008-01-23,1.92, 1.08, -21.36, 1.88, 1.63, 7.36, repro,
2008-01-24,3.02, 3.08, -9.18, 1.89, 1.64, 7.37, repro,
2008-01-25,3.81, 1.13, -11.32, 1.89, 1.64, 7.36, repro,
2008-01-26,4.93, 0.74, -5.80, 1.88, 1.63, 7.32, repro,
2008-01-27,3.20, 1.45, 0.42, 1.93, 1.71, 7.59, repro,
2008-01-28,1.91, 0.24, -7.30, 1.93, 1.65, 7.48, repro,
2008-01-29,-0.05, 2.12, -6.05, 1.97, 1.76, 7.66, repro,
2008-01-30,-1.10, 2.70, -7.73, 1.97, 1.72, 7.70, repro,
2008-01-31,2.02, 2.68, -15.10, 1.90, 1.67, 7.52, repro,
2008-02-01,-1.10, 1.89, -9.51, 1.88, 1.62, 7.32, repro,
2008-02-02,0.35, 0.65, -14.07, 1.88, 1.62, 7.35, repro,
2008-02-03,-1.04, 2.62, -9.00, 1.88, 1.64, 7.39, repro,
2008-02-04,0.26, 0.70, -0.76, 1.91, 1.70, 7.54, repro,
2008-02-05,1.14, 1.81, -4.92, 1.91, 1.68, 7.46, repro,
2008-02-06,3.97, 3.22, -8.52, 1.91, 1.69, 7.47, repro,
2008-02-07,0.90, 2.19, -9.03, 1.90, 1.64, 7.48, repro,
2008-02-08,0.42, 1.72, -3.48, 1.89, 1.62, 7.35, repro,
2008-02-09,-0.09, 2.70, -6.29, 1.89, 1.63, 7.39, repro,
2008-02-10,0.71, 2.14, -2.46, 1.88, 1.62, 7.35, repro,
2008-02-11,1.37, 2.12, -4.38, 1.91, 1.66, 7.52, repro,
2008-02-12,0.22, 1.78, -3.65, 1.88, 1.61, 7.29, repro,
2008-02-13,0.88, 1.65, -3.62, 1.89, 1.61, 7.34, repro,
2008-02-14,2.72, 1.99, -13.07, 1.88, 1.63, 7.37, repro,
2008-02-15,0.45, 2.22, -8.23, 1.91, 1.67, 7.42, repro,
2008-02-16,0.17, 1.20, -4.77, 1.91, 1.68, 7.46, repro,
2008-02-17,0.27, 1.63, -8.23, 1.90, 1.67, 7.53, repro,
2008-02-18,0.24, 2.11, -2.95, 1.88, 1.61, 7.28, repro,
2008-02-19,-0.01, 1.71, -4.59, 1.88, 1.62, 7.30, repro,
2008-02-20,0.26, 1.94, -2.85, 1.89, 1.63, 7.39, repro,
2008-02-21,-0.31, 1.11, 3.61, 1.89, 1.63, 7.40, repro,
2008-02-22,1.87, 1.33, -9.54, 1.90, 1.64, 7.41, repro,
2008-02-23,0.04, 1.98, -6.23, 1.91, 1.66, 7.53, repro,
2008-02-24,0.88, 1.23, -2.71, 1.93, 1.69, 7.52, repro,
2008-02-25,3.40, 1.11, -4.17, 1.89, 1.63, 7.35, repro,
2008-02-26,1.92, 1.09, -12.03, 1.89, 1.63, 7.37, repro,
2008-02-27,1.47, 1.48, -10.06, 1.91, 1.66, 7.51, repro,
2008-02-28,1.69, 0.48, -5.86, 1.97, 1.75, 7.96, repro,
2008-02-29,1.48, 1.06, -9.64, 1.91, 1.66, 7.50, repro,
2008-03-01,1.12, 0.73, -5.30, 1.89, 1.63, 7.38, repro,
2008-03-02,1.76, 1.12, -8.67, 1.94, 1.71, 7.78, repro,
2008-03-03,1.65, 1.08, -6.93, 1.89, 1.62, 7.37, repro,
2008-03-04,2.42, 1.66, -5.57, 1.88, 1.61, 7.33, repro,
2008-03-05,0.94, 1.44, -8.02, 1.94, 1.72, 7.70, repro,
2008-03-06,2.08, 1.10, -8.30, 1.88, 1.60, 7.28, repro,
2008-03-07,0.66, 0.51, -6.11, 1.88, 1.61, 7.29, repro,
2008-03-08,0.17, 1.75, -15.17, 1.94, 1.70, 7.75, repro,
2008-03-09,2.04, 0.76, -2.72, 1.93, 1.70, 7.76, repro,
2008-03-10,2.80, 2.22, -9.35, 1.89, 1.62, 7.37, repro,
2008-03-11,0.91, 2.32, -4.96, 1.89, 1.61, 7.37, repro,
2008-03-12,2.60, 1.31, -3.13, 1.91, 1.64, 7.51, repro,
2008-03-13,-6.72, 1.53, -2.04, 1.92, 1.65, 7.57, repro,
2008-03-14,-3.81, 1.80, -3.32, 1.91, 1.65, 7.52, repro,
2008-03-15,-2.02, -0.86, -4.39, 1.94, 1.70, 7.81, repro,
2008-03-16,-3.64, 1.10, 5.69, 1.95, 1.68, 7.70, repro,
2008-03-17,0.30, 1.39, -5.09, 2.00, 1.79, 8.04, repro,
2008-03-18,0.89, 0.68, -5.44, 1.93, 1.70, 7.66, repro,
2008-03-19,0.84, 0.47, -2.99, 1.92, 1.65, 7.47, repro,
2008-03-20,2.83, 0.03, -10.34, 1.93, 1.66, 7.51, repro,
2008-03-21,1.26, 1.08, -8.41, 1.92, 1.65, 7.48, repro,
2008-03-22,2.38, 1.32, -9.05, 1.93, 1.65, 7.50, repro,
2008-03-23,0.51, 0.43, -5.82, 1.91, 1.64, 7.46, repro,
2008-03-24,2.40, 0.31, -5.92, 1.92, 1.65, 7.47, repro,
2008-03-25,1.80, 0.40, -2.29, 1.95, 1.69, 7.59, repro,
2008-03-26,-0.42, 1.12, -4.98, 1.96, 1.69, 7.60, repro,
2008-03-27,1.82, 0.10, -10.78, 1.95, 1.68, 7.54, repro,
2008-03-28,1.68, 0.35, -1.38, 1.93, 1.68, 7.50, repro,
2008-03-29,1.64, -0.10, -8.59, 1.90, 1.62, 7.41, repro,
2008-03-30,2.29, -0.28, -5.10, 1.92, 1.62, 7.44, repro,
2008-03-31,1.06, 1.38, -3.91, 1.92, 1.63, 7.44, repro,
2008-04-01,0.74, 1.05, -2.02, 1.92, 1.62, 7.43, repro,
2008-04-02,1.12, 0.96, -8.02, 1.96, 1.62, 7.57, repro,
2008-04-03,2.74, 1.15, -8.91, 1.90, 1.60, 7.35, repro,
2008-04-04,0.06, 2.12, -6.53, 1.91, 1.61, 7.41, repro,
2008-04-05,0.48, 0.07, 0.56, 1.92, 1.63, 7.46, repro,
2008-04-06,0.98, 0.69, -3.04, 1.92, 1.61, 7.43, repro,
2008-04-07,-0.12, -0.16, -15.46, 1.91, 1.60, 7.36, repro,
2008-04-08,2.22, 1.63, -10.74, 1.90, 1.61, 7.33, repro,
2008-04-09,-3.72, 0.66, -2.22, 1.91, 1.61, 7.39, repro,
2008-04-10,0.04, 2.71, -5.74, 1.91, 1.62, 7.43, repro,
2008-04-11,1.53, 2.17, -2.53, 1.95, 1.67, 7.55, repro,
2008-04-12,1.31, 1.01, -3.76, 1.91, 1.61, 7.40, repro,
2008-04-13,1.93, 1.57, -3.51, 2.17, 1.86, 8.56, repro,
2008-04-14,1.33, 0.10, -2.83, 1.90, 1.61, 7.38, repro,
2008-04-15,1.69, 0.48, -3.08, 1.95, 1.66, 7.54, repro,
2008-04-16,1.12, 1.00, -2.65, 1.95, 1.66, 7.54, repro,
2008-04-17,2.37, 1.22, -3.60, 1.95, 1.68, 7.58, repro,
2008-04-18,1.48, 1.47, -0.85, 1.91, 1.61, 7.38, repro,
2008-04-19,1.60, 0.93, -3.52, 1.90, 1.61, 7.35, repro,
2008-04-20,-0.19, -0.02, -8.13, 1.92, 1.61, 7.43, repro,
2008-04-21,1.35, 0.87, -9.63, 1.92, 1.61, 7.44, repro,
2008-04-22,-0.51, 1.92, -2.37, 1.92, 1.62, 7.45, repro,
2008-04-23,3.26, -0.13, -5.33, 1.99, 1.69, 7.73, repro,
2008-04-24,0.15, 1.71, -7.03, 1.98, 1.71, 7.69, repro,
2008-04-25,0.64, 0.94, -2.12, 1.95, 1.61, 7.48, repro,
2008-04-26,0.05, 1.18, -6.52, 2.01, 1.64, 7.72, repro,
2008-04-27,1.94, 2.09, -3.23, 2.00, 1.64, 7.71, repro,
2008-04-28,0.96, 0.89, -0.73, 2.00, 1.64, 7.68, repro,
2008-04-29,-0.12, -0.25, -3.95, 2.07, 1.65, 7.80, repro,
2008-04-30,-0.45, 0.67, -5.26, 1.97, 1.64, 7.55, repro,
2008-05-01,0.76, 1.09, 3.14, 1.98, 1.65, 7.62, repro,
2008-05-02,1.23, 2.12, -3.75, 2.01, 1.67, 7.67, repro,
2008-05-03,1.50, 1.37, -0.10, 1.97, 1.66, 7.62, repro,
2008-05-04,0.91, 1.48, -0.46, 1.93, 1.62, 7.43, repro,
2008-05-05,-0.61, 1.16, -3.48, 2.01, 1.72, 7.75, repro,
2008-05-06,-1.28, 1.36, -5.06, 2.02, 1.71, 7.75, repro,
2008-05-07,0.95, 1.58, 1.00, 2.00, 1.70, 7.67, repro,
2008-05-08,0.70, 1.02, -5.62, 2.11, 1.76, 8.09, repro,
2008-05-09,0.34, 1.44, -3.97, 1.97, 1.65, 7.58, repro,
2008-05-10,-0.16, 2.28, -4.92, 1.97, 1.64, 7.57, repro,
2008-05-11,1.30, 0.69, 4.36, 1.97, 1.62, 7.47, repro,
2008-05-12,0.47, 1.08, 2.62, 2.01, 1.70, 7.73, repro,
2008-05-13,-1.33, 2.17, -6.46, 1.95, 1.61, 7.47, repro,
2008-05-14,0.79, 1.92, -5.88, 1.95, 1.62, 7.51, repro,
2008-05-15,0.52, 1.05, -0.41, 1.94, 1.63, 7.52, repro,
2008-05-16,0.12, 2.33, -3.57, 1.95, 1.62, 7.51, repro,
2008-05-17,-1.10, 0.48, -2.31, 2.02, 1.70, 7.72, repro,
2008-05-18,-1.12, 0.19, -0.60, 2.03, 1.72, 7.82, repro,
2008-05-19,0.54, 2.49, -5.24, 1.95, 1.68, 7.61, repro,
2008-05-20,0.05, 2.33, 1.55, 1.97, 1.66, 7.65, repro,
2008-05-21,-1.55, 2.68, 3.07, 1.96, 1.66, 7.58, repro,
2008-05-22,-6.32, 2.36, 2.28, 1.99, 1.67, 7.63, repro,
2008-05-23,0.84, 1.78, 3.29, 1.95, 1.65, 7.60, repro,
2008-05-24,0.56, 0.72, -0.17, 1.96, 1.67, 7.64, repro,
2008-05-25,0.82, 2.18, -1.63, 1.98, 1.73, 7.75, repro,
2008-05-26,-0.82, 2.13, -1.51, 1.98, 1.71, 7.67, repro,
2008-05-27,-0.00, 2.49, -1.90, 1.96, 1.65, 7.57, repro,
2008-05-28,-0.12, 1.97, -5.41, 1.95, 1.65, 7.58, repro,
2008-05-29,1.22, 2.38, -5.81, 2.02, 1.72, 7.74, repro,
2008-05-30,1.80, 3.72, -0.74, 1.98, 1.73, 7.76, repro,
2008-05-31,1.26, 2.77, -1.73, 1.98, 1.74, 7.80, repro,
2008-06-01,1.71, 1.42, -0.60, 1.96, 1.66, 7.55, repro,
2008-06-02,1.97, 0.92, 2.36, 1.98, 1.70, 7.74, repro,
2008-06-03,1.40, 3.38, -3.41, 2.00, 1.68, 7.73, repro,
2008-06-04,-1.42, 3.19, 3.92, 1.98, 1.67, 7.61, repro,
2008-06-05,-0.13, 1.95, 4.97, 1.95, 1.67, 7.52, repro,
2008-06-06,2.86, 3.15, -5.11, 1.99, 1.70, 7.69, repro,
2008-06-07,0.35, 0.99, 6.18, 2.00, 1.70, 7.68, repro,
2008-06-08,1.45, 2.64, -0.87, 1.96, 1.64, 7.50, repro,
2008-06-09,2.15, 2.44, -0.37, 1.97, 1.65, 7.47, repro,
2008-06-10,0.80, 2.11, -1.81, 1.93, 1.60, 7.37, repro,
2008-06-11,0.17, 2.37, -2.42, 1.96, 1.66, 7.46, repro,
2008-06-12,0.87, 3.07, -0.61, 1.98, 1.70, 7.67, repro,
2008-06-13,0.14, 2.83, -4.07, 1.97, 1.67, 7.53, repro,
2008-06-14,-0.56, 2.50, -0.99, 2.00, 1.69, 7.67, repro,
2008-06-15,1.47, 2.10, -0.68, 1.99, 1.65, 7.56, repro,
2008-06-16,0.95, 2.91, 1.15, 1.93, 1.60, 7.35, repro,
2008-06-17,0.50, 3.76, -4.93, 1.95, 1.66, 7.46, repro,
2008-06-18,-0.32, 3.13, -3.16, 1.96, 1.68, 7.59, repro,
2008-06-19,-0.76, 2.65, -1.18, 1.99, 1.74, 7.66, repro,
2008-06-20,1.29, 2.28, 4.44, 1.94, 1.62, 7.47, repro,
2008-06-21,1.76, 1.95, -4.38, 1.94, 1.61, 7.44, repro,
2008-06-22,-1.17, 4.19, -1.26, 1.96, 1.66, 7.47, repro,
2008-06-23,-1.97, 2.16, -3.52, 1.96, 1.66, 7.45, repro,
2008-06-24,0.04, 1.76, -0.65, 1.98, 1.73, 7.59, repro,
2008-06-25,-0.15, 3.52, 6.20, 1.99, 1.74, 7.68, repro,
2008-06-26,0.98, 1.76, 3.85, 1.99, 1.72, 7.64, repro,
2008-06-27,0.72, 1.29, 3.54, 1.96, 1.67, 7.49, repro,
2008-06-28,1.14, 2.27, -4.15, 1.94, 1.66, 7.41, repro,
2008-06-29,0.61, 1.96, -2.66, 1.97, 1.73, 7.57, repro,
2008-06-30,0.28, 2.49, 4.13, 1.99, 1.74, 7.63, repro,
2008-07-01,1.64, 3.18, 1.69, 1.98, 1.68, 7.57, repro,
2008-07-02,1.03, 2.06, -7.03, 1.94, 1.61, 7.42, repro,
2008-07-03,0.45, 1.72, -3.99, 1.95, 1.66, 7.44, repro,
2008-07-04,0.79, 1.69, -6.79, 1.91, 1.58, 7.25, repro,
2008-07-05,0.45, 2.72, -1.99, 1.98, 1.71, 7.65, repro,
2008-07-06,0.22, 1.95, 5.39, 1.94, 1.60, 7.38, repro,
2008-07-07,2.23, 1.76, 3.76, 1.98, 1.67, 7.54, repro,
2008-07-08,-0.53, 2.22, 2.54, 1.94, 1.59, 7.34, repro,
2008-07-09,0.89, 1.96, -0.91, 1.96, 1.65, 7.46, repro,
2008-07-10,0.17, 1.56, 2.79, 2.00, 1.64, 7.53, repro,
2008-07-11,2.15, 2.26, 3.20, 2.05, 1.72, 7.72, repro,
2008-07-12,0.50, 2.04, 1.75, 1.95, 1.60, 7.44, repro,
2008-07-13,0.75, 2.20, 1.45, 1.96, 1.67, 7.48, repro,
2008-07-14,0.98, 1.23, 4.44, 1.96, 1.66, 7.46, repro,
2008-07-15,0.92, 2.28, -2.60, 1.91, 1.59, 7.29, repro,
2008-07-16,-0.70, 2.10, -2.35, 1.98, 1.67, 7.54, repro,
2008-07-17,-0.59, 4.03, -1.17, 1.96, 1.66, 7.54, repro,
2008-07-18,1.45, 1.70, -3.63, 2.06, 1.64, 7.80, repro,
2008-07-19,1.42, 1.87, 1.37, 2.02, 1.62, 7.72, repro,
2008-07-20,-0.28, 3.24, 3.58, 1.92, 1.59, 7.32, repro,
2008-07-21,0.75, 2.49, 2.05, 1.93, 1.61, 7.35, repro,
2008-07-22,0.85, 1.98, 3.04, 1.93, 1.59, 7.32, repro,
2008-07-23,1.27, 2.43, 1.89, 2.00, 1.66, 7.61, repro,
2008-07-24,1.53, 0.58, -1.10, 1.93, 1.60, 7.38, repro,
2008-07-25,-0.50, 0.86, 5.39, 1.92, 1.58, 7.32, repro,
2008-07-26,1.51, 2.02, 0.89, 1.91, 1.59, 7.31, repro,
2008-07-27,1.01, 2.02, -1.13, 1.92, 1.59, 7.34, repro,
2008-07-28,2.24, 2.80, 3.86, 1.99, 1.60, 7.48, repro,
2008-07-29,1.95, 2.44, 7.59, 2.01, 1.66, 7.74, repro,
2008-07-30,2.31, 1.38, 6.37, 2.01, 1.61, 7.66, repro,
2008-07-31,0.42, 1.28, 5.19, 1.93, 1.58, 7.32, repro,
2008-08-01,2.23, 1.20, 5.13, 1.92, 1.59, 7.34, repro,